Tracking 19709 objects as of 17-Jun-2019
HD Live streaming from Space Station
objects crossing your sky now

OV1-13 R/B

Track OV1-13 R/B now!
10-day predictions


NORAD ID: 3212
Int'l Code: 1968-026D
Perigee: 579.5 km
Apogee: 9,173.4 km
Inclination: 100.0 °
Period: 197.9 minutes
Semi major axis: 11247 km
RCS: 1.1486 m2 (large)
Launch date: April 6, 1968
Source: United States (US)
Launch site: AIR FORCE WESTERN TEST RANGE (AFWTR)

Note: This is a ROCKET BODY
aabbcc
Your satellite tracking list
Your tracking list is empty




NASA's NSSDC Master Catalog

Two Line Element Set (TLE):
1  3212U 68026D   19168.09505447 -.00000018  00000-0 -32493-4 0  9995
2  3212  99.9657 303.9441 3820387  97.4339 306.6031  7.27819024355771
Source of the keplerian elements: AFSPC